Location: Augirein
(42.9320°N, 0.9181°E)
Time: 19:18:22
(UTC+00:00)

DELTA 2 DEB (DPAF) - Pass Details

Date: 20 June 2021
Orbit: 639 x 645 km, 98.4° (Epoch: 23 July)

Event Time Altitude Azimuth Distance (km) Brightness Sun altitude
Exits shadow 02:45:34 13° 181° (S) 1,824 6.0 -13.2°
Maximum altitude 02:49:24 57° 259° (WSW) 759 4.2 -12.8°
Drops below altitude 10° 02:53:48 10° 338° (NNW) 2,048 7.1 -12.3°
Sets 02:56:03 0° 343° (NNW) 2,961 8.0 -12.0°
